FW0743 Weather Reports


time (UTC)temp
C
wind
direction
speed
KPH
gust
KPH
rain 1hr
cm
rain 24hr
cm
rain mn
cm
humidity
%
barometer
mb
20260905091527 12 352 0.0 1.6 0.00 0.00 0.00 97 1013.2
20260905090010 12 352 0.0 0.0 0.00 0.00 0.00 96 1013.1
20260905084513 12 352 0.0 0.0 0.00 0.00 0.00 96 1013.2
20260905083018 12 352 0.0 0.0 0.00 0.00 0.00 96 1013.2
20260905081524 12 352 0.0 1.6 0.00 0.00 0.00 96 1013.3
20260905080030 12 352 0.0 0.0 0.00 0.00 0.00 95 1013.4
20260905074521 13 352 0.0 1.6 0.00 0.00 0.00 95 1013.3
20260905073016 13 352 0.0 1.6 0.00 0.00 0.00 95 1013.4
20260905071523 13 352 0.0 1.6 0.00 0.00 0.00 94 1013.4
20260905070026 13 352 0.0 1.6 0.00 0.00 0.00 94 1013.6
20260905064531 14 352 0.0 3.2 0.00 0.00 0.00 93 1013.5
20260905063014 14 352 0.0 4.8 0.00 0.00 0.00 93 1013.6
20260905061520 14 338 0.0 3.2 0.00 0.00 0.00 93 1013.7
20260905060040 15 324 0.0 1.6 0.00 0.00 0.00 92 1013.6
20260905054557 15 324 0.0 0.0 0.00 0.00 0.00 91 1013.7
20260905053033 15 324 0.0 3.2 0.00 0.00 0.00 90 1013.8
20260905051518 16 355 0.0 3.2 0.00 0.00 0.00 88 1013.9
20260905050003 16 345 0.0 3.2 0.00 0.00 0.00 88 1013.9
20260905044527 16 345 0.0 3.2 0.00 0.00 0.00 88 1014.0
20260905043007 16 345 0.0 3.2 0.00 0.00 0.00 90 1013.9
20260905041519 16 345 0.0 3.2 0.00 0.00 0.00 93 1013.9
20260905040021 16 345 0.0 3.2 0.00 0.00 0.00 95 1013.9
20260905034504 16 345 0.0 1.6 0.00 0.00 0.00 95 1013.8
20260905033008 16 345 0.0 1.6 0.00 0.00 0.00 95 1013.8
20260905031510 16 345 0.0 1.6 0.00 0.00 0.00 94 1013.6
20260905030029 16 345 0.0 1.6 0.00 0.00 0.00 94 1013.6
20260905024525 16 345 0.0 0.0 0.00 0.00 0.00 93 1013.6
20260905023003 16 345 0.0 1.6 0.00 0.00 0.00 93 1013.7
20260905021507 16 345 0.0 3.2 0.00 0.00 0.00 94 1013.8
20260905020014 16 345 0.0 1.6 0.00 0.00 0.00 93 1013.9
20260905014525 16 345 0.0 1.6 0.00 0.00 0.00 91 1013.7
20260905013008 16 345 0.0 1.6 0.00 0.00 0.00 91 1013.7
20260905011508 17 345 0.0 0.0 0.00 0.00 0.00 89 1013.8
20260905010017 17 345 0.0 0.0 0.00 0.00 0.00 90 1013.8
20260905004517 17 345 0.0 0.0 0.00 0.00 0.00 88 1013.8
20260905003025 17 345 0.0 0.0 0.00 0.00 0.00 86 1013.9
20260905001505 18 345 0.0 0.0 0.00 0.00 0.00 84 1013.8
20260905000008 18 345 0.0 1.6 0.00 0.00 0.00 82 1013.7
20260904234514 19 345 0.0 0.0 0.00 0.00 0.00 80 1013.6
20260904233022 19 342 0.0 4.8 0.00 0.00 0.00 78 1013.4
20260904231526 20 355 0.0 4.8 0.00 0.00 0.00 76 1013.3
20260904230015 20 344 1.6 8.0 0.00 0.00 0.00 74 1013.4
20260904224513 20 339 3.2 11.3 0.00 0.00 0.00 72 1013.3
20260904223016 20 360 4.8 11.3 0.00 0.00 0.00 70 1013.4
20260904221533 21 326 4.8 14.5 0.00 0.00 0.00 67 1013.3
20260904220031 21 346 3.2 14.5 0.00 0.00 0.00 66 1013.4
20260904214511 21 336 6.4 16.1 0.00 0.00 0.00 63 1013.5
20260904213016 22 352 9.7 19.3 0.00 0.00 0.00 63 1013.5
20260904211520 22 319 8.0 17.7 0.00 0.00 0.00 61 1013.5
20260904210034 22 311 6.4 12.9 0.00 0.00 0.00 62 1013.7
20260904204532 22 308 9.7 22.5 0.00 0.00 0.00 62 1013.7
20260904203019 22 23 8.0 19.3 0.00 0.00 0.00 61 1013.7
20260904201520 22 323 9.7 19.3 0.00 0.00 0.00 61 1013.9
20260904200045 22 327 11.3 20.9 0.00 0.00 0.00 64 1014.1
20260904194533 22 300 6.4 19.3 0.00 0.00 0.00 65 1014.3
20260904193007 22 331 8.0 20.9 0.00 0.00 0.00 64 1014.3
20260904191514 22 351 8.0 24.1 0.00 0.00 0.00 62 1014.3
20260904190023 22 300 8.0 19.3 0.00 0.00 0.00 62 1014.3
20260904184536 23 333 9.7 24.1 0.00 0.00 0.00 60 1014.3
20260904183039 23 291 9.7 20.9 0.00 0.00 0.00 61 1014.3
20260904181514 22 322 8.0 20.9 0.00 0.00 0.00 63 1014.4
20260904180016 23 321 9.7 20.9 0.00 0.00 0.00 62 1014.4
20260904174526 23 319 9.7 20.9 0.00 0.00 0.00 60 1014.7
20260904173037 22 307 4.8 20.9 0.00 0.00 0.00 64 1014.6
20260904171511 22 307 11.3 19.3 0.00 0.00 0.00 61 1014.5
20260904170014 22 348 14.5 25.7 0.00 0.00 0.00 62 1014.6
20260904164523 22 5 9.7 20.9 0.00 0.00 0.00 64 1014.7
20260904163026 22 345 8.0 19.3 0.00 0.00 0.00 63 1015.0
20260904161509 22 323 8.0 22.5 0.00 0.00 0.00 65 1014.7
20260904160016 22 63 6.4 17.7 0.00 0.00 0.00 65 1014.8
20260904154518 22 28 8.0 20.9 0.00 0.00 0.00 69 1014.9
20260904153028 22 319 6.4 19.3 0.00 0.00 0.00 68 1014.6
20260904151533 22 53 9.7 17.7 0.00 0.00 0.00 68 1014.6
20260904150008 22 15 6.4 17.7 0.00 0.00 0.00 72 1014.6
20260904144520 22 342 6.4 12.9 0.00 0.00 0.00 73 1014.6
20260904143033 21 323 4.8 20.9 0.00 0.00 0.00 73 1014.7
20260904141529 21 304 6.4 16.1 0.00 0.00 0.00 76 1014.6
20260904140031 21 360 9.7 14.5 0.00 0.00 0.00 77 1014.9
20260904134517 21 28 4.8 12.9 0.00 0.00 0.00 80 1014.9
20260904133019 20 282 3.2 12.9 0.00 0.00 0.00 85 1015.1
20260904131525 20 312 3.2 11.3 0.00 0.00 0.00 90 1014.7
20260904130031 19 26 3.2 11.3 0.00 0.00 0.00 95 1014.6
20260904124514 18 346 3.2 8.0 0.00 0.00 0.00 98 1014.6
20260904123018 17 325 0.0 4.8 0.00 0.00 0.00 98 1014.7
20260904121523 17 308 1.6 4.8 0.00 0.00 0.00 98 1015.0
20260904120029 16 303 0.0 3.2 0.00 0.00 0.00 98 1014.7
20260904114530 16 338 0.0 0.0 0.00 0.00 0.00 98 1014.6
20260904113014 15 338 0.0 0.0 0.00 0.00 0.00 99 1014.6
20260904111523 15 338 0.0 1.6 0.00 0.00 0.00 99 1014.5
20260904110026 14 338 0.0 1.6 0.00 0.00 0.00 98 1014.5
20260904104531 14 338 0.0 1.6 0.00 0.00 0.00 98 1014.3
20260904103032 14 338 0.0 0.0 0.00 0.00 0.00 98 1014.3
20260904101516 14 338 0.0 0.0 0.00 0.00 0.00 98 1014.1
20260904100023 14 338 0.0 1.6 0.00 0.00 0.00 98 1013.8
20260904094545 15 338 0.0 1.6 0.00 0.00 0.00 98 1013.8
20260904093035 15 338 0.0 0.0 0.00 0.00 0.00 97 1013.6